Change the Weather History Date:

Wednesday, February 8, 2012

  Actual Average Record
Temperature  
Mean Temperature 26 °F -  
Max Temperature 31 °F 28 °F 86 °F (2005)
Min Temperature 20 °F 9 °F -20 °F (1934)
Degree Days  
Heating Degree Days 40    
Moisture  
Dew Point 19 °F    
Average Humidity 77    
Maximum Humidity 89    
Minimum Humidity 56    
Precipitation  
Precipitation 0.00 in - - ()
Sea Level Pressure  
Sea Level Pressure 30.24 in    
Wind  
Wind Speed 2 mph (WNW)    
Max Wind Speed 6 mph    
Max Gust Speed -    
Visibility 10 miles    
Events      
Averages and records for this station are not official NWS values.
T = Trace of Precipitation, MM = Missing Value Source: NWS Daily Summary

Daily Weather History Graph

Daily Weather History Graph

Search for Another Location

Airport or City:

Trip Planner

Search our weather history database for the weather conditions in past years. The results will help you decide how hot, cold, wet, or windy it might be!

Date:

Astronomy

Feb. 08, 2012 Rise Set
Actual Time 7:12 AM EST 5:28 PM EST
Civil Twilight 6:43 AM EST 5:57 PM EST
Nautical Twilight 6:09 AM EST 6:30 PM EST
Astronomical Twilight 5:36 AM EST 7:03 PM EST
Moon 6:48 PM EST (2/8) 7:12 AM EST (2/8)
Length of Visible Light 11h 14m
Length of Day
10h 15m
Full, 99% of the Moon is Illuminated
Feb 8
Full
Feb 14
Last Quarter
Feb 21
New
Feb 29
First Quarter
Mar 8
Full

Hourly Weather History & Observations

Time (EST) Temp. Windchill Dew Point Humidity Pressure Visibility Wind Dir Wind Speed Gust Speed Precip Events Conditions
12:56 AM 25.2 °F 19.5 °F 16.2 °F 69% 30.32 in 10.0 mi NW 4.6 mph - N/A   Overcast
1:56 AM 23.0 °F 18.4 °F 16.2 °F 75% 30.32 in 10.0 mi WNW 3.5 mph - N/A   Mostly Cloudy
2:56 AM 22.1 °F 14.7 °F 17.1 °F 81% 30.32 in 10.0 mi WNW 5.8 mph - N/A   Partly Cloudy
3:56 AM 21.0 °F - 17.1 °F 85% 30.32 in 10.0 mi Calm Calm - N/A   Clear
4:56 AM 20.1 °F - 17.1 °F 88% 30.31 in 10.0 mi Calm Calm - N/A   Clear
5:56 AM 21.0 °F 16.2 °F 17.1 °F 85% 30.30 in 10.0 mi NNW 3.5 mph - N/A   Mostly Cloudy
6:20 AM 21.2 °F - 17.6 °F 86% 30.25 in 10.0 mi Calm Calm - N/A   Mostly Cloudy
6:56 AM 21.0 °F - 18.1 °F 89% 30.31 in 10.0 mi Calm Calm - N/A   Mostly Cloudy
7:56 AM 21.0 °F - 18.1 °F 89% 30.32 in 10.0 mi Calm Calm - N/A   Mostly Cloudy
8:56 AM 23.0 °F - 18.1 °F 82% 30.31 in 10.0 mi Calm Calm - N/A   Mostly Cloudy
9:56 AM 27.1 °F - 17.1 °F 66% 30.30 in 10.0 mi Calm Calm - N/A   Mostly Cloudy
10:56 AM 28.0 °F 24.2 °F 18.1 °F 66% 30.30 in 10.0 mi SSW 3.5 mph - N/A   Mostly Cloudy
11:56 AM 28.0 °F 22.8 °F 18.1 °F 66% 30.26 in 10.0 mi Variable 4.6 mph - N/A   Scattered Clouds
12:56 PM 30.0 °F 24.1 °F 19.0 °F 64% 30.23 in 10.0 mi SSW 5.8 mph - N/A   Mostly Cloudy
1:56 PM 30.0 °F - 18.1 °F 61% 30.19 in 10.0 mi Calm Calm - N/A   Overcast
2:56 PM 31.1 °F 27.7 °F 17.1 °F 56% 30.18 in 10.0 mi SSW 3.5 mph - N/A   Overcast
3:56 PM 31.1 °F - 17.1 °F 56% 30.17 in 10.0 mi Calm Calm - N/A   Overcast
4:56 PM 30.0 °F 26.5 °F 20.1 °F 67% 30.16 in 10.0 mi WNW 3.5 mph - N/A   Overcast
5:56 PM 28.0 °F 22.8 °F 21.0 °F 75% 30.15 in 10.0 mi NNW 4.6 mph - N/A   Overcast
6:56 PM 25.2 °F 20.9 °F 21.0 °F 84% 30.14 in 10.0 mi NNW 3.5 mph - N/A   Overcast
7:56 PM 27.1 °F - 21.0 °F 78% 30.14 in 10.0 mi Calm Calm - N/A   Overcast
8:56 PM 26.1 °F - 21.0 °F 81% 30.14 in 10.0 mi Calm Calm - N/A   Overcast
9:56 PM 27.1 °F - 22.1 °F 81% 30.14 in 10.0 mi Calm Calm - N/A   Overcast
10:56 PM 27.1 °F - 22.1 °F 81% 30.13 in 10.0 mi Calm Calm - N/A   Overcast
11:56 PM 27.1 °F 21.8 °F 22.1 °F 81% 30.14 in 10.0 mi West 4.6 mph - N/A   Clear